Location: Beemte
(52.2555°N, 5.9895°E)
Time: 20:21:37
(UTC+00:00)

COSMOS 2428 - Pass Details

Date: 15 May 2026
Orbit: 844 x 855 km, 70.9° (Epoch: 6 June)

Event Time Altitude Azimuth Distance (km) Brightness Sun altitude
Rises 22:49:00 0° 327° (NNW) 3,426 7.1 -18.1°
Reaches altitude 10° 22:51:30 10° 323° (NW) 2,485 6.1 -18.1°
Maximum altitude 22:57:04 56° 247° (WSW) 1,000 3.0 -18.3°
Enters shadow 22:59:33 32° 184° (S) 1,426 3.3 -18.3°
